Previsão horária em Aban

Hoje, 26 Janeiro, Terça-feira

Tempo Temperatura Precipitação Vento Pressão Humidade
00:00 -36°C° 0 mm 0 m/s 757 mmHg 97%
01:00 -35°C° 0 mm 0 m/s 757 mmHg 97%
02:00 -34°C° 0 mm 0 m/s 757 mmHg 97%
03:00 -35°C° 0 mm 1 m/s 757 mmHg 97%
04:00 -34°C° 0 mm 1 m/s 756 mmHg 97%
05:00 -34°C° 0 mm 1 m/s 756 mmHg 97%
06:00 -34°C° 0 mm 1 m/s 756 mmHg 98%
07:00 -34°C° 0 mm 1 m/s 756 mmHg 98%
08:00 -33°C° 0 mm 1 m/s 756 mmHg 97%
09:00 -33°C° 0 mm 1 m/s 756 mmHg 97%
10:00 -32°C° 0 mm 1 m/s 756 mmHg 96%
11:00 -32°C° 0 mm 1 m/s 755 mmHg 95%
12:00 -31°C° 0 mm 1 m/s 755 mmHg 93%
13:00 -31°C° 0 mm 1 m/s 755 mmHg 94%
14:00 -31°C° 0 mm 1 m/s 755 mmHg 95%
15:00 -31°C° 0 mm 1 m/s 755 mmHg 96%
16:00 -32°C° 0 mm 1 m/s 756 mmHg 96%
17:00 -33°C° 0 mm 1 m/s 756 mmHg 97%
18:00 -34°C° 0 mm 1 m/s 756 mmHg 97%
19:00 -34°C° 0 mm 1 m/s 756 mmHg 98%
20:00 -35°C° 0 mm 1 m/s 756 mmHg 98%
21:00 -36°C° 0 mm 1 m/s 757 mmHg 98%
22:00 -36°C° 0 mm 1 m/s 757 mmHg 99%
23:00 -37°C° 0 mm 1 m/s 757 mmHg 99%

Amanhã, 27 Janeiro, Quarta-feira

Tempo Temperatura Precipitação Vento Pressão Humidade
00:00 -36°C° 0 mm 0 m/s 757 mmHg 99%
01:00 -37°C° 0 mm 0 m/s 757 mmHg 99%
02:00 -37°C° 0 mm 0 m/s 757 mmHg 99%
03:00 -38°C° 0 mm 1 m/s 756 mmHg 99%
04:00 -38°C° 0 mm 1 m/s 756 mmHg 99%
05:00 -38°C° 0 mm 1 m/s 756 mmHg 99%
06:00 -38°C° 0 mm 1 m/s 756 mmHg 98%
07:00 -40°C° 0 mm 2 m/s 755 mmHg 98%
08:00 -39°C° 0 mm 2 m/s 755 mmHg 97%
09:00 -39°C° 0 mm 2 m/s 754 mmHg 97%
10:00 -38°C° 0 mm 3 m/s 753 mmHg 96%
11:00 -35°C° 0 mm 3 m/s 752 mmHg 95%
12:00 -32°C° 0 mm 3 m/s 750 mmHg 93%
13:00 -32°C° 0 mm 4 m/s 749 mmHg 93%
14:00 -31°C° 0 mm 4 m/s 748 mmHg 92%
15:00 -29°C° 0 mm 4 m/s 746 mmHg 92%
16:00 -27°C° 0.2 mm 4 m/s 745 mmHg 93%
17:00 -26°C° 0.2 mm 4 m/s 744 mmHg 95%
18:00 -25°C° 0.2 mm 4 m/s 743 mmHg 97%
19:00 -24°C° 0.4 mm 4 m/s 742 mmHg 97%
20:00 -23°C° 0.4 mm 4 m/s 741 mmHg 96%
21:00 -21°C° 0.4 mm 3 m/s 740 mmHg 96%
22:00 -18°C° 0.2 mm 3 m/s 740 mmHg 95%
23:00 -18°C° 0.2 mm 4 m/s 739 mmHg 93%

Depois de amanhã, 28 Janeiro, Quinta-feira

Tempo Temperatura Precipitação Vento Pressão Humidade
00:00 -16°C° 0.2 mm 4 m/s 739 mmHg 92%
01:00 -16°C° 0.1 mm 4 m/s 738 mmHg 92%
02:00 -16°C° 0.1 mm 4 m/s 738 mmHg 93%
03:00 -16°C° 0.1 mm 4 m/s 738 mmHg 94%
04:00 -18°C° 0 mm 4 m/s 738 mmHg 93%
05:00 -20°C° 0 mm 4 m/s 739 mmHg 93%
06:00 -23°C° 0 mm 4 m/s 739 mmHg 92%
07:00 -24°C° 0 mm 4 m/s 740 mmHg 91%
08:00 -26°C° 0 mm 4 m/s 741 mmHg 90%
09:00 -27°C° 0 mm 4 m/s 742 mmHg 89%
10:00 -28°C° 0 mm 5 m/s 742 mmHg 86%
11:00 -27°C° 0 mm 5 m/s 743 mmHg 83%
12:00 -28°C° 0 mm 6 m/s 743 mmHg 80%
13:00 -27°C° 0 mm 5 m/s 744 mmHg 81%
14:00 -28°C° 0 mm 5 m/s 744 mmHg 81%
15:00 -27°C° 0 mm 4 m/s 744 mmHg 82%
16:00 -29°C° 0 mm 4 m/s 744 mmHg 83%
17:00 -30°C° 0 mm 4 m/s 745 mmHg 85%
18:00 -30°C° 0 mm 3 m/s 745 mmHg 87%
19:00 -30°C° 0.1 mm 3 m/s 745 mmHg 90%
20:00 -31°C° 0.1 mm 3 m/s 745 mmHg 93%
21:00 -30°C° 0.1 mm 2 m/s 745 mmHg 97%
22:00 -30°C° 0.2 mm 2 m/s 744 mmHg 97%
23:00 -31°C° 0.2 mm 2 m/s 744 mmHg 98%

29 Janeiro, Sexta-feira

Tempo Temperatura Precipitação Vento Pressão Humidade
00:00 -29°C° 0.2 mm 1 m/s 743 mmHg 98%
01:00 -31°C° 0.4 mm 2 m/s 743 mmHg 98%
02:00 -31°C° 0.4 mm 2 m/s 743 mmHg 98%
03:00 -31°C° 0.4 mm 2 m/s 742 mmHg 98%
04:00 -31°C° 0.3 mm 2 m/s 742 mmHg 98%
05:00 -31°C° 0.3 mm 2 m/s 742 mmHg 98%
06:00 -33°C° 0.3 mm 3 m/s 741 mmHg 98%
07:00 -33°C° 0.4 mm 3 m/s 741 mmHg 98%
08:00 -33°C° 0.4 mm 3 m/s 740 mmHg 98%
09:00 -32°C° 0.4 mm 3 m/s 739 mmHg 98%
10:00 -32°C° 0.4 mm 3 m/s 739 mmHg 98%
11:00 -31°C° 0.4 mm 3 m/s 738 mmHg 98%
12:00 -30°C° 0.4 mm 3 m/s 738 mmHg 98%
13:00 -29°C° 0.4 mm 3 m/s 737 mmHg 98%
14:00 -29°C° 0.4 mm 3 m/s 737 mmHg 98%
15:00 -29°C° 0.4 mm 3 m/s 737 mmHg 98%
16:00 -29°C° 0.2 mm 3 m/s 737 mmHg 97%
17:00 -27°C° 0.2 mm 2 m/s 738 mmHg 97%
18:00 -27°C° 0.2 mm 2 m/s 739 mmHg 97%
19:00 -28°C° 0 mm 2 m/s 739 mmHg 97%
20:00 -27°C° 0 mm 1 m/s 740 mmHg 97%
21:00 -27°C° 0 mm 1 m/s 740 mmHg 97%
22:00 -27°C° 0.1 mm 1 m/s 740 mmHg 98%
23:00 -27°C° 0.1 mm 1 m/s 740 mmHg 98%

30 Janeiro, Sábado

Tempo Temperatura Precipitação Vento Pressão Humidade
00:00 -29°C° 0.1 mm 2 m/s 740 mmHg 98%
01:00 -28°C° 0.2 mm 2 m/s 739 mmHg 98%
02:00 -28°C° 0.2 mm 2 m/s 738 mmHg 98%
03:00 -27°C° 0.2 mm 2 m/s 738 mmHg 98%
04:00 -26°C° 0.3 mm 2 m/s 737 mmHg 98%
05:00 -26°C° 0.3 mm 2 m/s 737 mmHg 98%
06:00 -25°C° 0.3 mm 2 m/s 737 mmHg 98%
07:00 -25°C° 0.1 mm 2 m/s 737 mmHg 97%
08:00 -25°C° 0.1 mm 3 m/s 737 mmHg 96%
09:00 -26°C° 0.1 mm 4 m/s 738 mmHg 95%
10:00 -33°C° 0 mm 5 m/s 741 mmHg 92%
11:00 -34°C° 0 mm 5 m/s 742 mmHg 91%
12:00 -34°C° 0 mm 5 m/s 744 mmHg 90%
13:00 -35°C° 0 mm 5 m/s 745 mmHg 91%
14:00 -37°C° 0 mm 5 m/s 746 mmHg 91%
15:00 -35°C° 0 mm 4 m/s 747 mmHg 91%
16:00 -37°C° 0 mm 4 m/s 748 mmHg 93%
17:00 -35°C° 0 mm 3 m/s 749 mmHg 94%
18:00 -35°C° 0 mm 2 m/s 750 mmHg 96%
19:00 -35°C° 0 mm 2 m/s 751 mmHg 97%
20:00 -36°C° 0 mm 2 m/s 751 mmHg 97%
21:00 -36°C° 0 mm 2 m/s 752 mmHg 97%
22:00 -37°C° 0 mm 2 m/s 752 mmHg 97%
23:00 -37°C° 0 mm 2 m/s 753 mmHg 97%

31 Janeiro, Domingo

Tempo Temperatura Precipitação Vento Pressão Humidade
00:00 -38°C° 0 mm 2 m/s 753 mmHg 97%
01:00 -39°C° 0 mm 2 m/s 754 mmHg 97%
02:00 -40°C° 0 mm 2 m/s 754 mmHg 97%
03:00 -41°C° 0 mm 2 m/s 754 mmHg 97%
04:00 -39°C° 0 mm 1 m/s 754 mmHg 97%
05:00 -40°C° 0 mm 1 m/s 755 mmHg 97%
06:00 -41°C° 0 mm 1 m/s 755 mmHg 98%
07:00 -40°C° 0 mm 1 m/s 755 mmHg 97%
08:00 -40°C° 0 mm 1 m/s 754 mmHg 96%
09:00 -39°C° 0 mm 0 m/s 754 mmHg 95%
10:00 -37°C° 0 mm 0 m/s 754 mmHg 93%
11:00 -35°C° 0 mm 0 m/s 753 mmHg 91%
12:00 -34°C° 0 mm 0 m/s 753 mmHg 89%
13:00 -34°C° 0 mm 0 m/s 752 mmHg 90%
14:00 -34°C° 0 mm 0 m/s 752 mmHg 91%
15:00 -34°C° 0 mm 0 m/s 751 mmHg 92%
16:00 -36°C° 0 mm 0 m/s 751 mmHg 94%
17:00 -37°C° 0 mm 0 m/s 751 mmHg 95%
18:00 -40°C° 0 mm 1 m/s 751 mmHg 96%
19:00 -40°C° 0 mm 1 m/s 751 mmHg 96%
20:00 -40°C° 0 mm 1 m/s 750 mmHg 97%
21:00 -41°C° 0 mm 1 m/s 750 mmHg 97%
22:00 -41°C° 0 mm 1 m/s 750 mmHg 98%
23:00 -41°C° 0 mm 1 m/s 750 mmHg 98%
Mostrar mais